AirNav   Everest Fuels
 
 1060 users online  

NY15 Lakeville Airport
Lakeville, New York, USA

GOING TO LAKEVILLE?


FAA INFORMATION EFFECTIVE 15 JULY 2021

Location

FAA Identifier: NY15
Lat/Long: 42-49-35.2270N 077-42-52.0000W
42-49.587117N 077-42.866667W
42.8264519,-77.7144444
(estimated)
Elevation: 935 ft. / 285 m (estimated)
Variation: 11W (1985)
From city: 1 mile SW of LAKEVILLE, NY
Time zone: UTC -4 (UTC -5 during Standard Time)
Zip code: 14480

Airport Operations

Airport use: Private use. Permission required prior to landing
Activation date: 08/1966
Control tower: no
ARTCC: CLEVELAND CENTER
FSS: BUFFALO FLIGHT SERVICE STATION
Attendance: UNATNDD
Wind indicator: yes
Segmented circle: no

Airport Communications

WX ASOS at DSV (15 nm S): 118.325 (585-335-2380)
WX ASOS at ROC (18 nm N): 124.825 (585-235-7322)
WX AWOS-3P at IUA (18 nm E): 118.675 (585-396-5861)

Nearby radio navigation aids

VOR radial/distance  VOR name  Freq  Var
GEE at fieldGENESEO VOR/DME108.2009W
ROCr198/17.6ROCHESTER VOR/DME110.0012W

 
NDB name  Hdg/Dist  Freq  Var  ID
PENN YAN303/31.026012WPYA .--. -.-- .-

Airport Services

Airframe service: NONE
Powerplant service: NONE

Runway Information

Runway 1/19

Dimensions: 2800 x 60 ft. / 853 x 18 m
Surface: turf
RUNWAY 1  RUNWAY 19
Traffic pattern: leftleft
Obstructions: hgrnone

Airport Ownership and Management from official FAA records

Ownership: Privately-owned
Owner: LAKEVILLE AIRORT OWNERS, INC.
2697 LAKEVILLE RD
AVON, NY 14414
NO PHONE ON FIELD.
Manager: JOHN BODINE
3601 WEST LAKE ROAD
GENESEO, NY 14454
Phone 585-315-0094
CELL PHONE 585-355-9677.

Airport Operational Statistics

Aircraft based on the field: 8
Single engine airplanes: 8
    

Additional Remarks

FOR CD CTC CLEVELAND ARTCC AT 440-774-0490.

Instrument Procedures

There are no published instrument procedures at NY15.

Some nearby airports with instrument procedures:

5G0 - Le Roy Airport (13 nm NW)
KDSV - Dansville Municipal Airport (15 nm S)
KROC - Frederick Douglass - Greater Rochester International Airport (18 nm N)
KIUA - Canandaigua Airport (18 nm E)
7G0 - Ledgedale Airpark (23 nm N)
 
Loc | Ops | Rwys | IFR | FBO | Links
Com | Nav | Svcs | Stats | Notes
Area around NY15 (Lakeville Airport)
 
Road maps at: MapQuest Bing Google
 
Aerial photo
WARNING: Photo may not be current or correct
Aerial photo of NY15 (Lakeville Airport)
Do you have a better or more recent aerial photo of Lakeville Airport that you would like to share? If so, please send us your photo.

 
Sectional chart

 
Airport distance calculator
Flying to Lakeville Airport? Find the distance to fly.

From to NY15

Sunrise and sunset
Times for 01-Aug-2021
 Local
(UTC-4)
 Zulu
(UTC)
Morning civil twilight05:3109:31
Sunrise06:0310:03
Sunset20:3100:31
Evening civil twilight21:0301:03

Current date and time
Zulu (UTC)  02-Aug-2021 01:52:13
Local (UTC-4)  01-Aug-2021 21:52:13
 
METAR
KDSV 
16nm S 
020133Z AUTO 00000KT 9SM VCTS FEW028 SCT035 BKN110 16/16 A2991 RMK AO2 T01610156
KROC 
17nm N 
020101Z 00000KT 10SM SCT013 BKN020 BKN250 17/15 A2990 RMK AO2 T01670150
KIUA 
18nm E 
020135Z AUTO 00000KT 10SM SCT042 SCT048 SCT065 15/14 A2991 RMK AO2 T01450140
KGVQ 
23nm NW 
020137Z AUTO 02006KT 10SM BKN008 OVC049 17/15 A2993 RMK AO2 LTG DSNT SE RAB08E19 CIG 006V011 P0000
KPEO 
31nm E 
020053Z AUTO 24004KT 10SM SCT036 SCT046 16/16 A2989 RMK AO2 RAE38 SLP119 P0002 T01610161
TAF
KROC 
17nm N 
012121Z 0121/0218 33008KT P6SM VCSH FEW025 BKN070 FM012200 32008KT P6SM VCSH BKN040 FM020100 32008KT P6SM VCSH OVC020 FM020600 32008KT P6SM BKN025 FM020900 31007KT P6SM SCT035
NOTAMs
Click for the latest NOTAMs
NOTAMs are issued by the DoD/FAA and will open in a separate window not controlled by AirNav.

 

 
 

Would you like to see your business listed on this page?

 If your business provides an interesting product or service to pilots, flight crews, aircraft, or users of the Lakeville Airport, you should consider listing it here.  To start the listing process, click on the button below
 
Add a business
 

Other Pages about Lakeville Airport

Update a link
 
Copyright © AirNav, LLC. All rights reserved. Privacy Policy  Contact